| time (UTC) | temp F | wind direction | speed MPH | gust MPH | rain 1hr in | rain 24hr in | rain mn in | humidity % | barometer mb |
| 20260502021036 | 56 | 203 | 1.0 | 5.0 | 0.10 | 3.30 | 3.28 | 99 | 1013.5 |
| 20260502020016 | 56 | 90 | 2.0 | 6.0 | 0.09 | 3.28 | 3.26 | 99 | 1012.7 |
| 20260502015016 | 57 | 23 | 2.0 | 7.0 | 0.06 | 3.24 | 3.22 | 99 | 1013.1 |
| 20260502014036 | 57 | 338 | 3.0 | 8.0 | 0.06 | 3.22 | 3.20 | 99 | 1013.7 |
| 20260502013016 | 57 | 315 | 2.0 | 6.0 | 0.05 | 3.21 | 3.19 | 99 | 1012.8 |
| 20260502012017 | 57 | 0 | 2.0 | 4.0 | 0.07 | 3.21 | 3.19 | 99 | 1012.2 |
| 20260502011056 | 57 | 45 | 3.0 | 8.0 | 0.07 | 3.20 | 3.18 | 99 | 1012.0 |
| 20260502010016 | 58 | 23 | 2.0 | 6.0 | 0.07 | 3.19 | 3.17 | 99 | 1012.6 |
| 20260502005016 | 58 | 23 | 2.0 | 8.0 | 0.08 | 3.18 | 3.16 | 99 | 1012.4 |
| 20260502004016 | 58 | 315 | 3.0 | 5.0 | 0.09 | 3.16 | 3.14 | 100 | 1012.4 |
| 20260502003016 | 59 | 0 | 2.0 | 6.0 | 0.14 | 3.16 | 3.14 | 100 | 1011.6 |
| 20260502002016 | 59 | 23 | 2.0 | 6.0 | 0.15 | 3.14 | 3.12 | 99 | 1011.4 |
| 20260502001016 | 59 | 68 | 2.0 | 9.0 | 0.15 | 3.13 | 3.11 | 99 | 1011.5 |
| 20260502000016 | 59 | 90 | 1.0 | 7.0 | 0.15 | 3.12 | 3.10 | 99 | 1011.5 |
| 20260501235036 | 59 | 135 | 1.0 | 5.0 | 0.14 | 3.10 | 3.08 | 99 | 1011.8 |
| 20260501234016 | 59 | 90 | 1.0 | 4.0 | 0.12 | 3.07 | 3.05 | 99 | 1011.4 |
| 20260501233016 | 59 | 248 | 1.0 | 2.0 | 0.07 | 3.02 | 3.00 | 99 | 1011.8 |
| 20260501232016 | 59 | 293 | 2.0 | 6.0 | 0.04 | 2.99 | 2.97 | 99 | 1010.7 |
| 20260501231036 | 59 | 113 | 2.0 | 5.0 | 0.05 | 2.98 | 2.96 | 99 | 1009.6 |
| 20260501230016 | 59 | 135 | 2.0 | 5.0 | 0.08 | 2.97 | 2.95 | 99 | 1010.2 |
| 20260501224517 | 59 | 113 | 2.0 | 8.0 | 0.07 | 2.96 | 2.94 | 99 | 1010.0 |
| 20260501223517 | 60 | 90 | 2.0 | 9.0 | 0.07 | 2.95 | 2.93 | 99 | 1010.3 |
| 20260501222517 | 60 | 45 | 1.0 | 4.0 | 0.08 | 2.95 | 2.93 | 99 | 1011.4 |
| 20260501221537 | 60 | 68 | 2.0 | 10.0 | 0.09 | 2.95 | 2.93 | 99 | 1011.4 |
| 20260501220517 | 60 | 45 | 2.0 | 10.0 | 0.09 | 2.93 | 2.91 | 99 | 1011.6 |
| 20260501215517 | 60 | 0.0 | 4.0 | 0.07 | 2.89 | 2.87 | 99 | 1011.5 | |
| 20260501214517 | 60 | 23 | 3.0 | 9.0 | 0.11 | 2.89 | 2.87 | 99 | 1011.2 |
| 20260501213516 | 60 | 45 | 2.0 | 6.0 | 0.13 | 2.88 | 2.86 | 99 | 1010.6 |
| 20260501212537 | 60 | 113 | 1.0 | 5.0 | 0.13 | 2.87 | 2.85 | 99 | 1010.0 |
| 20260501211517 | 60 | 90 | 1.0 | 5.0 | 0.13 | 2.86 | 2.84 | 99 | 1009.4 |
| 20260501210517 | 60 | 45 | 2.0 | 8.0 | 0.12 | 2.84 | 2.82 | 99 | 1010.7 |
| 20260501205517 | 60 | 45 | 1.0 | 4.0 | 0.10 | 2.82 | 2.80 | 99 | 1010.0 |
| 20260501204517 | 61 | 113 | 2.0 | 7.0 | 0.08 | 2.78 | 2.76 | 99 | 1010.5 |
| 20260501203517 | 61 | 90 | 2.0 | 8.0 | 0.07 | 2.75 | 2.73 | 99 | 1009.9 |
| 20260501202537 | 61 | 23 | 2.0 | 6.0 | 0.09 | 2.74 | 2.72 | 99 | 1010.4 |
| 20260501201517 | 61 | 23 | 2.0 | 7.0 | 0.13 | 2.73 | 2.71 | 100 | 1009.6 |
| 20260501200517 | 61 | 45 | 2.0 | 5.0 | 0.15 | 2.72 | 2.70 | 100 | 1009.7 |
| 20260501195517 | 61 | 45 | 1.0 | 4.0 | 0.18 | 2.72 | 2.70 | 100 | 1009.8 |
| 20260501194517 | 61 | 90 | 2.0 | 7.0 | 0.17 | 2.70 | 2.68 | 100 | 1008.8 |
| 20260501193517 | 61 | 248 | 2.0 | 5.0 | 0.15 | 2.68 | 2.66 | 99 | 1009.0 |
| 20260501192515 | 61 | 113 | 2.0 | 9.0 | 0.12 | 2.65 | 2.63 | 99 | 1008.8 |
| 20260501191537 | 61 | 113 | 1.0 | 3.0 | 0.07 | 2.60 | 2.58 | 99 | 1009.2 |
| 20260501190517 | 61 | 158 | 2.0 | 5.0 | 0.05 | 2.57 | 2.55 | 99 | 1009.0 |
| 20260501185517 | 61 | 203 | 1.0 | 4.0 | 0.02 | 2.54 | 2.52 | 99 | 1008.9 |
| 20260501184518 | 61 | 248 | 2.0 | 7.0 | 0.01 | 2.53 | 2.51 | 99 | 1008.8 |
| 20260501183517 | 61 | 225 | 2.0 | 5.0 | 0.01 | 2.53 | 2.51 | 99 | 1007.8 |
| 20260501182517 | 62 | 113 | 3.0 | 10.0 | 0.02 | 2.53 | 2.51 | 99 | 1008.4 |
| 20260501181517 | 62 | 68 | 2.0 | 9.0 | 0.02 | 2.53 | 2.51 | 99 | 1009.0 |
| 20260501180517 | 62 | 68 | 2.0 | 8.0 | 0.02 | 2.52 | 2.50 | 99 | 1009.1 |
| 20260501175517 | 62 | 23 | 3.0 | 12.0 | 0.06 | 2.52 | 2.50 | 99 | 1009.9 |
| 20260501174537 | 62 | 68 | 3.0 | 9.0 | 0.09 | 2.52 | 2.50 | 99 | 1010.3 |
| 20260501173517 | 62 | 68 | 2.0 | 11.0 | 0.12 | 2.52 | 2.50 | 99 | 1010.3 |
| 20260501172517 | 62 | 90 | 2.0 | 8.0 | 0.13 | 2.51 | 2.49 | 99 | 1010.3 |
| 20260501171517 | 62 | 23 | 2.0 | 11.0 | 0.14 | 2.51 | 2.49 | 99 | 1010.3 |
| 20260501170517 | 61 | 45 | 2.0 | 6.0 | 0.14 | 2.50 | 2.48 | 99 | 1011.0 |
| 20260501165517 | 61 | 68 | 1.0 | 4.0 | 0.11 | 2.46 | 2.44 | 99 | 1011.0 |
| 20260501164517 | 62 | 0 | 2.0 | 8.0 | 0.08 | 2.43 | 2.41 | 99 | 1011.5 |
| 20260501163537 | 61 | 23 | 1.0 | 4.0 | 0.06 | 2.40 | 2.38 | 99 | 1012.1 |
| 20260501162517 | 62 | 68 | 2.0 | 8.0 | 0.06 | 2.38 | 2.36 | 99 | 1011.9 |